Location: Angwan Shehu
(11.2514°N, 7.4613°E)
Time: 23:07:48
(UTC+00:00)

SR - Pass Details

Date: 16 April 2021
Orbit: 573 x 882 km, 66.7° (Epoch: 11 May)

Event Time Altitude Azimuth Distance (km) Brightness Sun altitude
Rises 18:40:16 0° 319° (NW) 3,299 ? -14.9°
Reaches altitude 10° 18:43:13 10° 305° (NW) 2,315 ? -15.6°
Maximum altitude 18:47:19 23° 254° (WSW) 1,523 ? -16.5°
Drops below altitude 10° 18:51:11 10° 202° (SSW) 2,152 ? -17.5°
Sets 18:53:50 0° 187° (S) 3,011 ? -18.1°
